{"data":{"norad_id":64485,"epoch":"2026-05-25T05:31:44.685120Z","epoch_age_seconds":48956,"freshness":"FRESH","line1":"1 64485U 25133P   26145.23037830  .00016899  00000+0  58118-3 0  9993","line2":"2 64485  53.1574 121.5208 0001055  94.9365 265.1757 15.30211926 52909","mean_motion":15.30211926,"eccentricity":0.0001055,"inclination_deg":53.1574,"raan_deg":121.5208,"arg_perigee_deg":94.9365,"mean_anomaly_deg":265.1757,"bstar":0.00058118,"rev_number":5290,"period_min":94.104612278391,"perigee_km":474.45643587766,"apogee_km":475.90248565088,"semimajor_km":6853.3164607643,"source":"CELESTRAK","updated_at":"2026-05-25T13:38:20.459491Z"}}